MST,Max TemperatureF,Mean TemperatureF,Min TemperatureF,Max Dew PointF,MeanDew PointF,Min DewpointF,Max Humidity, Mean Humidity, Min Humidity, Max Sea Level PressureIn, Mean Sea Level PressureIn, Min Sea Level PressureIn, Max VisibilityMiles, Mean VisibilityMiles, Min VisibilityMiles, Max Wind SpeedMPH, Mean Wind SpeedMPH, Max Gust SpeedMPH,PrecipitationIn, CloudCover, Events, WindDirDegrees
2013-1-1,31,19,7,25,15,3,85,72,58,30.25,30.16,30.01,10,9,2,30,7,38,T,4,Snow,329
2013-1-2,31,26,21,23,18,14,88,73,58,30.41,30.20,30.04,10,8,1,36,20,43,T,8,Snow,329
2013-1-3,32,17,2,18,11,1,88,71,54,30.43,30.33,30.10,10,10,10,17,3,22,0.00,1,,191
2013-1-4,40,26,11,23,11,2,70,57,44,30.23,30.17,30.09,10,10,10,18,4,20,0.00,0,,322
2013-1-5,41,28,15,21,16,10,80,59,38,30.31,30.21,30.11,10,10,10,33,13,41,0.00,0,,314
2013-1-6,57,34,10,22,13,6,83,49,15,30.28,30.05,29.87,10,10,10,18,6,28,0.00,0,,188
2013-1-7,46,34,21,24,19,15,81,61,40,30.06,29.93,29.72,10,10,10,15,6,18,0.00,0,,239
2013-1-8,49,35,20,29,23,18,92,64,36,30.19,29.92,29.68,10,10,10,26,11,33,0.00,2,,326
2013-1-9,59,37,15,28,21,13,92,60,28,30.21,30.08,29.84,10,10,10,23,7,26,0.00,0,,151
2013-1-10,50,41,31,27,21,17,75,51,27,29.81,29.59,29.47,10,10,10,28,14,35,0.00,0,,167
2013-1-11,31,19,7,28,11,-2,92,79,66,29.98,29.62,29.41,10,5,0,41,31,51,0.12,8,Fog-Snow,340
2013-1-12,11,9,6,4,1,-2,80,72,63,30.29,30.11,29.84,10,5,1,38,21,45,0.02,8,Snow,334
2013-1-13,19,9,-2,5,1,-4,86,69,51,30.33,30.30,30.25,10,10,10,20,4,24,T,6,,292
2013-1-14,17,6,-5,6,-2,-8,87,72,56,30.37,30.29,30.07,10,10,10,12,3,13,0.00,2,,127
2013-1-15,42,19,-4,29,14,-9,92,75,57,30.20,30.06,29.90,10,8,1,36,5,44,0.02,7,Snow,200
2013-1-16,49,40,30,29,23,20,69,53,37,30.30,30.11,29.97,10,10,10,32,14,40,0.00,5,,312
2013-1-17,46,34,22,29,21,16,77,63,49,30.44,30.29,30.07,10,10,10,12,4,14,0.00,0,,226
2013-1-18,59,42,25,23,17,14,63,40,16,30.05,29.96,29.90,10,10,10,24,6,29,0.00,1,,302
2013-1-19,44,32,20,23,20,15,91,65,38,30.31,30.16,29.93,10,10,10,32,14,39,0.00,0,,349
2013-1-20,26,19,12,16,10,5,92,74,55,30.51,30.38,30.08,10,10,9,30,15,35,T,7,Snow,4
2013-1-21,19,12,5,11,8,2,92,83,73,30.44,30.29,30.08,10,8,2,14,6,16,0.01,7,Snow,79
2013-1-22,32,18,4,17,9,0,92,73,54,30.26,30.22,30.17,10,10,10,10,2,16,0.00,0,,119
2013-1-23,25,17,9,15,10,6,92,80,67,30.44,30.34,30.19,10,10,10,21,8,26,0.00,1,,90
2013-1-24,42,25,8,23,14,5,92,66,40,30.27,30.12,29.99,10,10,10,22,8,26,0.00,0,,6
2013-1-25,49,34,19,24,21,16,78,56,34,30.18,30.13,30.03,10,10,10,12,5,14,0.00,0,,171
2013-1-26,52,36,20,25,22,17,88,62,35,30.01,29.91,29.81,10,10,10,13,3,16,0.00,0,,21
2013-1-27,50,39,28,30,27,22,100,71,42,29.81,29.74,29.67,10,10,10,25,10,31,0.00,3,,2
2013-1-28,32,25,18,29,27,15,100,93,85,29.89,29.80,29.73,10,5,1,20,10,24,0.09,8,Snow,344
2013-1-29,35,21,6,23,15,0,92,74,56,30.14,29.90,29.78,10,9,3,38,16,45,T,5,Snow,326
2013-1-30,19,9,-1,12,6,-6,88,81,74,30.13,29.93,29.76,10,5,1,31,8,39,0.10,7,Snow,359
2013-1-31,15,7,-1,10,1,-7,87,75,63,30.43,30.17,29.86,10,6,1,33,13,43,0.01,8,Snow,360